Cincinnati, OH (45201)

6:51 PM EST on February 25, 2017 (GMT -0500)
Norwood | | Change Station

Elev 620 ft 39.15 °N, 84.45 °W | Updated 3 seconds ago

Overcast
Overcast
32.6 °F
Feels Like 26 °F
N
8.0
Wind Variable Wind from SSW

Today
High -- | Low -- °F
--% Chance of Precip.
Yesterday
High -- | Low -- °F
Precip. -- in
Pressure 30.03 in
Visibility 10.0 miles
Clouds Overcast 4300 ft
Windchill 26 °F
Dew Point 19 °F
Humidity 59%
Rainfall 0.13 in
Snow Depth Not available.
7:15 AM 6:26 PM
Waning Crescent, 0% visible
METAR KLUK 252253Z 25012G21KT 10SM OVC043 01/M07 A3002 RMK AO2 SLP169 T00061067
Pressure 30.03 in
Visibility 10.0 miles
Clouds Overcast 4300 ft
Windchill 26 °F
Dew Point 19 °F
Humidity 59%
Rainfall 0.13 in
Snow Depth Not available.
7:15 AM 6:26 PM
Waning Crescent, 0% visible
METAR KLUK 252253Z 25012G21KT 10SM OVC043 01/M07 A3002 RMK AO2 SLP169 T00061067

Get Your Daily Forecast Email!

Thanks for signing up!

Be on the lookout for a verification email in your inbox.

You'll start receiving the daily forecast at 8 AM.

×

10-Day Weather Forecast

Almanac

Astronomy

Feb. 25, 2017 Rise Set
Actual Time
Civil Twilight
Nautical Twilight
Astronomical Twilight
Moon
Length of Visible Light
Length of Day
Tomorrow will be .
, % of the Moon is Illuminated

Today's Extremes

State Highs State Lows

Community

WunderPhotos

Upload Photos

1,962,540 photos uploaded!

WunderBlog® & News

Nearby

Air Quality

  Air Quality AQ Index Pollutant
Not available.

Snow Depth

Station Depth Elevation

Earthquake Activity

City Distance Mag. Time & Date
Minimum magnitude displayed is 2.5.

Coastal Water Temperatures

Place Temperature

Stations

Nearby Weather Stations

Station Location Temp. Windchill Dew Point Humidity Wind Precip. Elev Updated Type
                   

Watches & Warnings

There are currently no watches in effect.